Rapid City, SD

9:16 AM MDT on March 29, 2017 (GMT -0600)
Rapid City Regional

Weather History for KRAP - March, 2014

Change the Weather History Date:

Saturday, March 22, 2014

  Actual Average Record
Temperature  
Mean Temperature 16 °F 37 °F  
Max Temperature 21 °F 50 °F 77 °F (2009)
Min Temperature 11 °F 25 °F -4 °F (2002)
Degree Days  
Heating Degree Days 49 28  
Month to date heating degree days 734 682  
Since 1 July heating degree days 6367 5892  
Cooling Degree Days 0 0  
Month to date cooling degree days 0 0  
Year to date cooling degree days 0 0  
Moisture  
Dew Point 12 °F    
Average Humidity 80    
Maximum Humidity 92    
Minimum Humidity 67    
Precipitation  
Precipitation 0.06 in 0.03 in 0.69 in (1966)
Month to date precipitation 0.85 0.62  
Year to date precipitation 1.34 1.36  
Snow  
Snow 1.60 in 0.30 in 6.70 in (1966)
Month to date snowfall 11.1 6.2  
Since 1 July snowfall 54.1 29.6  
Snow Depth T in    
Sea Level Pressure  
Sea Level Pressure 30.45 in    
Wind  
Wind Speed 7 mph (NE)    
Max Wind Speed 15 mph    
Max Gust Speed 18 mph    
Visibility 4 miles    
Events Fog , Snow    
T = Trace of Precipitation, MM = Missing Value Source: NWS Daily Summary

Daily Weather History Graph

Daily Weather History Graph

Search for Another Location

Airport or City:

Trip Planner

Search our weather history database for the weather conditions in past years. The results will help you decide how hot, cold, wet, or windy it might be!

Date:

Astronomy

Mar. 22, 2014 Rise Set
Actual Time 6:51 AM MDT 7:07 PM MDT
Civil Twilight 6:22 AM MDT 7:36 PM MDT
Nautical Twilight 5:48 AM MDT 8:10 PM MDT
Astronomical Twilight 5:14 AM MDT 8:44 PM MDT
Moon 12:38 AM MDT (3/22) 10:26 AM MDT (3/22)
Length of Visible Light 13h 13m
Length of Day
12h 15m
Waning Gibbous, 65% of the Moon is Illuminated
Mar 22
Waning Gibbous
Mar 23
Last Quarter
Mar 30
New
Apr 7
First Quarter
Apr 15
Full

Hourly Weather History & Observations

Time (MDT) Temp. Windchill Dew Point Humidity Pressure Visibility Wind Dir Wind Speed Gust Speed Precip Events Conditions
12:52 AM 19.9 °F 6.2 °F 15.1 °F 81% 30.43 in 10.0 mi North 15.0 mph - 0.00 in   Overcast
1:27 AM 19.4 °F 6.6 °F 14.0 °F 80% 30.32 in 10.0 mi NNE 12.7 mph - N/A   Overcast
1:35 AM 19.4 °F 6.0 °F 14.0 °F 80% 30.32 in 10.0 mi NNE 13.8 mph - N/A   Overcast
1:52 AM 19.9 °F 7.3 °F 15.1 °F 81% 30.45 in 10.0 mi North 12.7 mph - N/A   Overcast
2:25 AM 19.4 °F 6.0 °F 14.0 °F 80% 30.31 in 10.0 mi NNE 13.8 mph - N/A   Overcast
2:52 AM 19.0 °F 6.8 °F 14.0 °F 81% 30.43 in 8.0 mi NNE 11.5 mph - 0.00 in Snow Light Snow
3:50 AM 17.6 °F 7.3 °F 12.2 °F 79% 30.32 in 10.0 mi NE 8.1 mph - 0.00 in Snow Light Snow
3:52 AM 18.0 °F 6.1 °F 12.9 °F 81% 30.45 in 9.0 mi NE 10.4 mph - 0.00 in Snow Light Snow
4:27 AM 17.6 °F 4.3 °F 12.2 °F 79% 30.31 in 5.0 mi NNE 12.7 mph - 0.00 in Snow Light Snow
4:52 AM 18.0 °F 4.8 °F 12.0 °F 78% 30.45 in 5.0 mi NNE 12.7 mph - 0.00 in Snow Light Snow
5:19 AM 17.6 °F 3.7 °F 12.2 °F 79% 30.32 in 4.0 mi NNE 13.8 mph - 0.00 in Snow Light Snow
5:47 AM 17.6 °F 4.3 °F 14.0 °F 86% 30.33 in 2.0 mi NE 12.7 mph - 0.00 in Snow Light Snow
5:52 AM 17.1 °F 4.3 °F 12.9 °F 84% 30.47 in 2.0 mi NE 11.5 mph - 0.00 in Snow Light Snow
6:07 AM 17.6 °F 5.0 °F 12.2 °F 79% 30.34 in 3.0 mi NE 11.5 mph - 0.00 in Snow Light Snow
6:42 AM 15.8 °F 2.7 °F 12.2 °F 86% 30.35 in 2.0 mi NE 11.5 mph - 0.00 in Snow Light Snow
6:52 AM 16.0 °F 2.9 °F 12.0 °F 84% 30.50 in 2.5 mi NE 11.5 mph - 0.00 in Snow Light Snow
7:00 AM 15.8 °F 2.7 °F 10.4 °F 79% 30.36 in 3.0 mi NE 11.5 mph - 0.00 in Snow Light Snow
7:03 AM 15.8 °F 2.1 °F 10.4 °F 79% 30.36 in 2.5 mi NE 12.7 mph - 0.00 in Snow Light Snow
7:11 AM 15.8 °F 2.1 °F 10.4 °F 79% 30.36 in 1.8 mi NNE 12.7 mph - 0.00 in Snow Light Snow
7:45 AM 15.8 °F 2.7 °F 10.4 °F 79% 30.38 in 1.8 mi NNE 11.5 mph - 0.00 in Snow Light Snow
7:52 AM 15.1 °F 2.5 °F 10.9 °F 84% 30.54 in 2.0 mi NNE 10.4 mph - 0.00 in Snow Light Snow
8:02 AM 15.8 °F 3.4 °F 10.4 °F 79% 30.38 in 1.2 mi NNE 10.4 mph - 0.00 in Snow Light Snow
8:41 AM 15.8 °F 3.4 °F 10.4 °F 79% 30.39 in 0.5 mi NNE 10.4 mph - 0.01 in Fog , Snow Light Snow
8:52 AM 15.1 °F 2.5 °F 10.9 °F 84% 30.56 in 0.5 mi NNE 10.4 mph - 0.02 in Fog , Snow Snow
9:14 AM 15.8 °F 2.7 °F 10.4 °F 79% 30.40 in 1.0 mi NNE 11.5 mph - 0.00 in Snow Light Snow
9:35 AM 15.8 °F 2.7 °F 10.4 °F 79% 30.41 in 1.2 mi NNE 11.5 mph - 0.01 in Snow Light Snow
9:48 AM 15.8 °F 5.1 °F 10.4 °F 79% 30.41 in 1.2 mi NNE 8.1 mph - 0.01 in Snow Light Snow
9:52 AM 16.0 °F 3.6 °F 10.0 °F 77% 30.57 in 1.2 mi NNE 10.4 mph - 0.01 in Snow Light Snow
10:07 AM 17.6 °F 5.0 °F 10.4 °F 73% 30.41 in 2.5 mi NNE 11.5 mph - 0.00 in Snow Light Snow
10:11 AM 17.6 °F 5.0 °F 8.6 °F 68% 30.41 in 1.5 mi NNE 11.5 mph - 0.00 in Snow Light Snow
10:37 AM 17.6 °F 5.7 °F 10.4 °F 73% 30.42 in 1.5 mi North 10.4 mph - 0.01 in Snow Light Snow
10:52 AM 17.1 °F 6.6 °F 10.0 °F 74% 30.58 in 1.5 mi NNE 8.1 mph - 0.01 in Snow Light Snow
11:16 AM 17.6 °F 7.3 °F 10.4 °F 73% 30.41 in 2.0 mi NNE 8.1 mph - 0.00 in Snow Light Snow
11:46 AM 19.4 °F 9.5 °F 10.4 °F 68% 30.41 in 4.0 mi NNE 8.1 mph - 0.00 in Snow Light Snow
11:47 AM 18.0 °F 7.7 °F 10.9 °F 74% 30.57 in 4.0 mi NE 8.1 mph - 0.00 in Snow Light Snow
11:52 AM 17.6 °F 6.4 °F 10.4 °F 73% 30.41 in 2.0 mi NNE 9.2 mph - 0.00 in Snow Light Snow
12:52 PM 19.0 °F 12.3 °F 10.9 °F 71% 30.56 in 2.0 mi NNE 4.6 mph - 0.00 in Snow Light Snow
12:59 PM 19.4 °F 10.4 °F 12.2 °F 74% 30.40 in 3.0 mi NE 6.9 mph - 0.00 in Snow Light Snow
1:52 PM 19.9 °F 11.1 °F 12.9 °F 74% 30.56 in 1.0 mi North 6.9 mph - 0.00 in Snow Light Snow
2:37 PM 21.2 °F 14.9 °F 12.2 °F 68% 30.39 in 3.0 mi Variable 4.6 mph - 0.01 in Snow Light Snow
2:45 PM 21.2 °F 12.6 °F 15.8 °F 80% 30.39 in 2.0 mi ENE 6.9 mph - 0.01 in Snow Light Snow
2:52 PM 21.0 °F 11.4 °F 14.0 °F 74% 30.55 in 2.0 mi ENE 8.1 mph - 0.01 in Snow Light Snow
2:55 PM 21.2 °F 10.9 °F 15.8 °F 80% 30.39 in 0.8 mi NE 9.2 mph - 0.00 in Snow Light Snow
3:12 PM 21.2 °F 12.6 °F 15.8 °F 80% 30.39 in 1.5 mi East 6.9 mph - 0.00 in Snow Light Snow
3:52 PM 19.9 °F 11.1 °F 14.0 °F 78% 30.55 in 1.0 mi NE 6.9 mph - 0.00 in Snow Light Snow
4:11 PM 21.2 °F 14.9 °F 15.8 °F 80% 30.39 in 3.0 mi East 4.6 mph - 0.01 in Snow Light Snow
4:27 PM 21.2 °F 14.9 °F 15.8 °F 80% 30.39 in 2.5 mi ENE 4.6 mph - 0.01 in Snow Light Snow
4:35 PM 21.2 °F 13.6 °F 15.8 °F 80% 30.39 in 3.0 mi East 5.8 mph - 0.01 in Snow Light Snow
4:52 PM 21.0 °F 14.6 °F 15.1 °F 78% 30.55 in 5.0 mi East 4.6 mph - 0.01 in Snow Light Snow
5:52 PM 21.0 °F 16.2 °F 12.9 °F 71% 30.56 in 9.0 mi SE 3.5 mph - 0.00 in   Overcast
6:43 PM 19.4 °F 11.5 °F 12.2 °F 74% 30.40 in 10.0 mi SE 5.8 mph - 0.00 in   Overcast
6:52 PM 19.9 °F 13.4 °F 12.9 °F 74% 30.56 in 10.0 mi SE 4.6 mph - 0.00 in   Overcast
7:23 PM 19.4 °F 14.3 °F 12.2 °F 74% 30.40 in 3.0 mi SE 3.5 mph - 0.00 in Snow Light Snow
7:52 PM 19.0 °F 10.0 °F 15.1 °F 85% 30.58 in 3.0 mi South 6.9 mph - 0.00 in Snow Light Snow
8:52 PM 16.0 °F - 12.9 °F 88% 30.59 in 10.0 mi Calm Calm - 0.00 in   Overcast
9:40 PM 17.6 °F - 12.2 °F 79% 30.40 in 10.0 mi Calm Calm - N/A   Overcast
9:52 PM 16.0 °F - 12.9 °F 88% 30.58 in 10.0 mi Calm Calm - N/A   Mostly Cloudy
10:03 PM 15.8 °F 10.2 °F 12.2 °F 86% 30.40 in 10.0 mi SE 3.5 mph - N/A   Mostly Cloudy
10:52 PM 15.1 °F 7.7 °F 12.0 °F 88% 30.58 in 10.0 mi SE 4.6 mph - N/A   Overcast
11:52 PM 12.9 °F 3.8 °F 10.0 °F 88% 30.56 in 10.0 mi SE 5.8 mph - N/A   Clear